Temp
-14 -13 -13 -13 -13 -13 -13 -13 -13 -13 -13 -12 -12 -12 -12 -13 -13 -13 -12 -12 -12 -12 -12 -11 -11 -11 -11 -11 -11 -11 -11 -11 -11 -11 -12 -12 -12 -12 -11 -12 -12 -12 -12 -11
-14 -13 -13 -13 -13 -13 -13 -13 -13 -13 -13 -13 -12 -12 -12 -12 -12 -12 -12 -12 -12 -12 -12 -11 -12 -11 -12 -12 -11 -11 -12 -12 -12 -12 -12 -12 -11 -11 -12 -12 -12 -12 -12 -12
-14 -13 -13 -13 -13 -14 -13 -13 -12 -13 -13 -13 -13 -12 -11 -12 -12 -12 -12 -12 -12 -12 -12 -12 -12 -12 -12 -12 -12 -12 -12 -12 -12 -12 -12 -12 -12 -12 -12 -12 -12 -12 -12 -12
-14 -13 -13 -14 -14 -14 -13 -13 -13 -13 -13 -13 -13 -12 -12 -12 -12 -11 -12 -12 -12 -12 -12 -12 -12 -12 -12 -12 -12 -12 -12 -12 -12 -12 -12 -12 -12 -12 -12 -12 -12 -12 -12 -12
-13 -14 -13 -13 -13 -14 -13 -13 -13 -13 -13 -13 -13 -13 -11 -12 -11 -11 -11 -11 -12 -12 -12 -12 -12 -12 -12 -12 -12 -12 -12 -12 -12 -12 -12 -12 -12 -12 -13 -12 -12 -12 -12 -13
-14 -14 -14 -14 -14 -14 -14 -14 -14 -14 -13 -13 -12 -13 -11 -12 -12 -12 -12 -12 -12 -12 -12 -12 -12 -12 -12 -12 -12 -12 -12 -12 -12 -12 -12 -12 -12 -12 -12 -12 -12 -12 -13 -12
-14 -14 -14 -14 -14 -14 -14 -14 -14 -14 -14 -13 -12 -13 -11 -11 -12 -12 -12 -12 -12 -12 -12 -12 -12 -12 -12 -12 -12 -12 -12 -12 -12 -12 -12 -12 -12 -12 -12 -12 -13 -13 -13 -13
-15 -14 -14 -14 -14 -14 -14 -14 -14 -15 -14 -13 -12 -12 -12 -12 -12 -12 -13 -12 -12 -12 -12 -12 -12 -12 -12 -12 -12 -12 -12 -12 -12 -12 -12 -12 -12 -12 -13 -12 -13 -13 -12 -13
-15 -15 -15 -15 -14 -14 -14 -14 -15 -15 -15 -14 -13 -12 -12 -12 -12 -12 -12 -13 -13 -13 -13 -13 -12 -12 -12 -12 -12 -12 -12 -12 -12 -13 -12 -12 -12 -13 -13 -13 -13 -13 -13 -13
-16 -16 -16 -15 -15 -15 -15 -15 -15 -15 -15 -15 -14 -13 -13 -13 -13 -13 -13 -13 -13 -12 -12 -12 -12 -12 -12 -12 -12 -12 -12 -12 -12 -12 -12 -12 -13 -13 -13 -13 -13 -14 -14 -14
-17 -16 -16 -16 -15 -15 -15 -14 -15 -15 -15 -14 -14 -13 -13 -13 -13 -13 -13 -13 -13 -13 -13 -13 -13 -13 -13 -13 -13 -13 -13 -14 -13 -13 -14 -14 -14 -14 -13 -14 -14 -15 -15 -16
-17 -17 -16 -16 -16 -16 -16 -16 -16 -16 -15 -15 -14 -14 -14 -14 -14 -14 -14 -14 -14 -14 -14 -14 -14 -13 -13 -13 -13 -14 -14 -14 -14 -14 -14 -14 -14 -15 -15 -15 -16 -17 -17 -17
-20 -18 -17 -17 -17 -17 -17 -16 -16 -17 -16 -16 -15 -14 -15 -15 -15 -15 -15 -14 -14 -14 -14 -14 -14 -14 -14 -14 -14 -14 -15 -15 -15 -15 -15 -15 -16 -16 -17 -18 -19 -19 -19 -19
-21 -19 -19 -19 -18 -18 -18 -18 -18 -18 -18 -17 -16 -16 -16 -16 -16 -16 -15 -15 -15 -14 -15 -15 -14 -14 -14 -14 -14 -15 -15 -15 -16 -16 -16 -17 -17 -18 -19 -19 -19 -19 -19 -19
-21 -20 -20 -19 -19 -19 -18 -18 -18 -18 -18 -18 -17 -17 -17 -16 -16 -16 -16 -16 -15 -15 -15 -15 -15 -16 -16 -16 -16 -16 -16 -16 -17 -18 -18 -19 -20 -20 -20 -19 -19 -19 -19 -19
-21 -21 -21 -20 -20 -19 -19 -19 -18 -18 -18 -17 -17 -17 -17 -17 -17 -17 -17 -17 -17 -16 -16 -16 -16 -16 -16 -16 -16 -17 -18 -19 -19 -19 -20 -20 -19 -19 -19 -19 -19 -19 -19 -20
-22 -21 -21 -21 -21 -20 -20 -19 -19 -19 -19 -18 -18 -18 -18 -17 -17 -17 -17 -17 -17 -17 -17 -17 -17 -17 -17 -18 -18 -18 -19 -19 -20 -20 -20 -20 -19 -19 -19 -19 -19 -20 -20 -21
-22 -21 -21 -21 -21 -21 -20 -20 -20 -20 -19 -19 -19 -19 -18 -18 -19 -18 -18 -18 -18 -18 -18 -18 -18 -19 -19 -19 -19 -20 -20 -20 -20 -20 -20 -20 -19 -19 -19 -20 -21 -21 -21 -22
-22 -22 -22 -22 -21 -21 -20 -21 -20 -20 -20 -20 -20 -19 -19 -19 -19 -18 -19 -19 -19 -19 -19 -19 -20 -19 -20 -20 -21 -21 -20 -20 -20 -19 -19 -19 -19 -20 -21 -22 -22 -21 -21 -22
-21 -21 -21 -21 -21 -20 -21 -21 -20 -20 -19 -19 -19 -19 -19 -19 -19 -19 -19 -19 -19 -19 -20 -20 -20 -21 -21 -21 -21 -20 -20 -20 -20 -20 -20 -20 -21 -21 -22 -22 -21 -21 -21 -21
-22 -21 -21 -21 -21 -21 -21 -21 -21 -20 -20 -20 -20 -20 -20 -20 -20 -20 -20 -20 -20 -20 -21 -21 -21 -21 -20 -20 -20 -20 -20 -20 -20 -20 -20 -21 -22 -22 -22 -21 -21 -21 -21 -21
-21 -21 -21 -21 -20 -21 -21 -21 -21 -21 -21 -20 -20 -20 -20 -20 -20 -20 -21 -21 -21 -21 -21 -20 -20 -20 -20 -20 -20 -20 -20 -20 -20 -21 -22 -22 -22 -22 -22 -21 -21 -21 -21 -21
-21 -21 -21 -21 -20 -21 -21 -21 -21 -21 -21 -21 -21 -21 -20 -20 -20 -20 -20 -20 -20 -20 -20 -20 -21 -20 -20 -20 -21 -21 -21 -21 -22 -22 -22 -21 -22 -21 -21 -21 -21 -21 -21 -21
-21 -21 -21 -21 -21 -21 -21 -21 -20 -21 -21 -21 -20 -20 -20 -20 -20 -21 -21 -20 -21 -21 -21 -21 -21 -21 -21 -21 -22 -22 -21 -22 -22 -21 -21 -21 -21 -21 -21 -21 -21 -21 -21 -21
-21 -21 -21 -21 -21 -21 -21 -21 -21 -21 -21 -20 -20 -20 -20 -21 -21 -21 -21 -22 -22 -22 -22 -21 -22 -21 -21 -22 -22 -22 -22 -21 -21 -21 -21 -21 -21 -21 -21 -21 -21 -21 -22 -22
-21 -21 -21 -21 -21 -21 -21 -20 -20 -20 -20 -20 -20 -21 -21 -21 -22 -22 -22 -22 -22 -22 -22 -21 -21 -22 -22 -21 -21 -21 -21 -21 -21 -21 -21 -21 -21 -21 -21 -21 -22 -22 -23 -23
Height
5737 5745 5752 5762 5768 5773 5778 5782 5787 5792 5797 5800 5806 5812 5817 5821 5827 5832 5836 5839 5842 5844 5844 5847 5849 5851 5853 5855 5856 5856 5857 5858 5859 5858 5858 5857 5856 5855 5853 5852 5850 5848 5846 5845
5730 5737 5744 5752 5758 5764 5770 5775 5781 5786 5790 5794 5799 5806 5808 5812 5817 5822 5827 5831 5833 5836 5839 5842 5843 5845 5846 5848 5849 5850 5850 5851 5851 5852 5851 5850 5849 5848 5846 5845 5843 5841 5840 5838
5722 5730 5736 5744 5751 5757 5763 5769 5774 5780 5784 5787 5792 5796 5801 5806 5811 5816 5819 5824 5827 5829 5831 5833 5836 5837 5839 5841 5841 5842 5843 5843 5843 5844 5844 5843 5842 5840 5838 5836 5834 5833 5831 5829
5715 5723 5729 5736 5743 5749 5755 5762 5767 5771 5775 5779 5786 5788 5796 5799 5804 5808 5812 5815 5818 5822 5824 5827 5828 5829 5831 5833 5835 5835 5836 5835 5835 5836 5835 5835 5833 5830 5829 5827 5825 5824 5822 5819
5710 5716 5722 5729 5736 5741 5747 5754 5759 5764 5768 5772 5778 5782 5788 5792 5796 5801 5805 5809 5812 5815 5817 5818 5819 5822 5823 5825 5826 5826 5827 5826 5826 5826 5826 5825 5824 5821 5819 5818 5816 5813 5810 5808
5700 5708 5714 5722 5729 5734 5740 5746 5751 5756 5760 5763 5770 5776 5775 5785 5790 5793 5798 5801 5804 5806 5808 5809 5810 5812 5813 5814 5815 5816 5816 5816 5816 5816 5816 5814 5813 5811 5808 5806 5803 5800 5797 5795
5693 5700 5708 5714 5721 5726 5732 5738 5743 5749 5752 5757 5763 5767 5770 5775 5783 5787 5790 5793 5795 5797 5799 5800 5800 5801 5802 5803 5805 5805 5805 5805 5805 5805 5804 5804 5801 5798 5796 5793 5791 5787 5784 5781
5686 5694 5700 5707 5713 5719 5725 5730 5736 5740 5746 5752 5755 5760 5764 5768 5775 5779 5780 5783 5786 5787 5789 5790 5791 5790 5790 5793 5794 5795 5794 5794 5793 5792 5791 5789 5788 5785 5782 5780 5778 5774 5771 5765
5679 5686 5692 5699 5705 5712 5717 5721 5729 5734 5738 5744 5748 5754 5757 5758 5763 5768 5771 5773 5775 5777 5779 5780 5781 5782 5778 5783 5784 5784 5783 5782 5780 5780 5779 5776 5775 5773 5769 5766 5763 5760 5755 5751
5672 5679 5684 5691 5697 5703 5709 5717 5721 5725 5730 5736 5740 5746 5749 5753 5756 5757 5761 5763 5765 5767 5768 5770 5771 5771 5772 5772 5771 5773 5773 5771 5770 5765 5765 5763 5761 5760 5758 5754 5751 5747 5745 5742
5666 5671 5679 5682 5690 5697 5701 5706 5713 5718 5722 5726 5733 5737 5742 5746 5749 5750 5751 5755 5756 5757 5758 5760 5761 5762 5762 5762 5761 5761 5760 5760 5760 5757 5755 5754 5752 5748 5745 5742 5738 5735 5732 5728
5657 5663 5670 5677 5683 5690 5695 5699 5704 5708 5716 5721 5725 5729 5732 5738 5741 5744 5744 5746 5747 5749 5750 5751 5751 5752 5753 5752 5751 5750 5750 5749 5748 5747 5744 5742 5740 5736 5733 5730 5727 5724 5720 5716
5651 5656 5662 5669 5676 5680 5685 5692 5696 5701 5707 5710 5715 5721 5724 5729 5731 5734 5736 5737 5738 5740 5740 5742 5741 5742 5742 5742 5741 5739 5738 5736 5735 5734 5733 5730 5728 5725 5722 5718 5715 5711 5707 5703
5645 5652 5658 5665 5670 5676 5681 5686 5690 5694 5698 5702 5708 5712 5717 5719 5722 5725 5727 5728 5730 5731 5732 5731 5732 5731 5731 5730 5730 5729 5728 5727 5726 5725 5723 5720 5718 5715 5712 5709 5705 5701 5696 5690
5640 5647 5653 5658 5663 5667 5672 5678 5682 5688 5693 5696 5701 5704 5707 5711 5715 5716 5716 5718 5721 5721 5722 5722 5722 5721 5721 5721 5720 5720 5719 5719 5717 5716 5713 5711 5708 5706 5703 5698 5693 5687 5680 5673
5636 5643 5648 5652 5657 5662 5666 5671 5676 5681 5686 5689 5693 5697 5701 5703 5707 5708 5708 5709 5711 5712 5712 5714 5714 5713 5712 5712 5711 5710 5709 5708 5706 5705 5704 5701 5699 5696 5691 5685 5677 5669 5663 5656
5633 5637 5642 5646 5651 5654 5660 5666 5669 5673 5677 5681 5686 5690 5692 5695 5697 5699 5700 5701 5702 5703 5704 5704 5704 5704 5702 5702 5702 5700 5700 5699 5696 5694 5693 5689 5686 5682 5676 5669 5662 5655 5647 5642
5628 5633 5636 5641 5644 5648 5654 5658 5661 5665 5668 5674 5678 5681 5684 5686 5688 5690 5692 5694 5694 5695 5696 5696 5695 5694 5693 5693 5692 5690 5689 5688 5686 5684 5681 5677 5671 5666 5660 5654 5647 5640 5634 5628
5622 5629 5633 5636 5641 5645 5649 5653 5658 5660 5665 5667 5669 5673 5676 5677 5678 5682 5685 5685 5686 5687 5688 5686 5685 5686 5686 5685 5684 5683 5681 5679 5675 5672 5668 5663 5658 5651 5646 5639 5633 5627 5620 5615
5620 5625 5630 5633 5636 5639 5644 5648 5650 5652 5658 5660 5663 5666 5667 5670 5674 5674 5674 5676 5678 5679 5680 5680 5680 5680 5680 5679 5676 5674 5671 5667 5662 5657 5653 5649 5643 5636 5631 5626 5620 5614 5607 5599
5619 5622 5626 5630 5633 5637 5641 5643 5646 5650 5656 5654 5656 5658 5659 5662 5664 5665 5668 5670 5671 5673 5674 5675 5674 5672 5670 5667 5665 5662 5658 5653 5648 5644 5639 5634 5628 5623 5618 5613 5606 5598 5588 5580
5616 5620 5624 5627 5629 5633 5636 5639 5643 5645 5646 5649 5651 5652 5654 5656 5658 5660 5662 5664 5666 5666 5667 5666 5664 5662 5659 5657 5653 5649 5645 5641 5636 5630 5626 5621 5616 5611 5604 5595 5586 5579 5571 5561
5614 5618 5620 5624 5626 5628 5631 5634 5636 5639 5641 5645 5647 5649 5651 5652 5653 5655 5656 5657 5659 5659 5658 5656 5654 5651 5648 5644 5641 5637 5632 5628 5624 5619 5614 5608 5601 5594 5586 5578 5570 5560 5549 5539
5612 5614 5617 5619 5622 5623 5625 5628 5630 5633 5636 5639 5642 5644 5646 5647 5649 5650 5651 5651 5651 5650 5648 5645 5642 5639 5636 5632 5628 5626 5622 5617 5612 5607 5600 5593 5585 5577 5570 5560 5549 5539 5528 5516
5608 5611 5613 5615 5617 5619 5622 5624 5626 5629 5631 5634 5636 5638 5640 5641 5642 5643 5643 5642 5641 5639 5636 5634 5631 5629 5626 5623 5619 5616 5611 5605 5599 5592 5586 5578 5570 5560 5550 5539 5529 5517 5504 5492
5604 5606 5607 5609 5610 5613 5615 5617 5620 5623 5627 5629 5632 5633 5634 5635 5635 5636 5635 5633 5630 5629 5628 5626 5623 5620 5617 5613 5608 5604 5598 5591 5585 5577 5570 5561 5552 5543 5533 5521 5507 5493 5482 5468
Wind_Speed
56 52 48 48 42 43 42 40 39 36 33 31 33 38 49 43 43 38 39 37 36 34 36 37 36 34 34 33 32 32 30 29 30 31 32 33 32 32 30 30 33 33 32 33
55 53 51 49 48 47 47 45 43 40 38 36 38 37 41 36 38 38 44 41 41 39 39 40 39 39 37 35 35 37 36 33 33 35 36 36 35 36 37 37 38 37 37 39
53 53 53 53 52 49 47 49 48 45 42 42 39 42 42 42 35 34 33 41 45 43 45 43 42 40 39 39 39 40 41 40 38 40 41 39 39 40 42 41 42 41 41 44
53 53 52 51 51 52 52 49 50 49 47 46 43 44 43 42 40 38 38 37 43 47 44 48 47 42 42 42 44 44 45 45 45 46 43 42 41 45 47 47 46 43 46 49
49 49 51 52 52 50 52 50 51 49 50 49 47 46 46 42 44 45 40 38 40 44 43 45 50 48 47 49 49 48 49 50 51 52 50 47 47 49 49 48 47 50 52 55
49 49 49 51 51 51 51 50 46 43 45 48 51 48 54 47 45 46 43 41 40 41 42 44 45 49 55 53 51 52 53 56 57 53 52 53 55 56 57 57 58 57 58 58
46 46 46 47 50 52 53 56 53 48 45 49 47 48 55 51 47 46 46 45 46 44 45 43 43 47 51 52 54 54 56 56 57 57 48 60 62 62 63 64 63 65 63 68
45 44 45 46 46 48 52 53 55 54 47 46 47 45 46 48 45 45 47 47 44 45 47 48 48 45 49 56 53 49 48 53 57 52 54 58 62 69 72 73 76 79 79 64
44 44 44 44 44 45 48 48 46 46 47 45 45 41 37 41 43 42 42 45 48 49 47 46 47 46 57 54 50 51 55 56 59 66 63 70 71 73 64 68 66 63 60 57
42 40 39 41 42 42 45 45 46 47 49 48 47 45 43 40 36 36 36 34 37 39 38 39 40 39 47 47 50 53 54 64 64 59 63 61 60 55 55 54 55 56 60 57
41 41 40 40 41 39 42 43 46 48 51 51 50 48 46 42 36 37 38 34 34 32 31 32 32 37 43 52 52 55 56 53 53 47 43 45 48 49 52 53 53 55 55 54
42 41 42 39 43 40 38 40 41 47 48 49 51 49 48 43 38 34 35 39 35 35 37 38 40 43 44 47 43 38 38 39 41 43 46 48 51 49 51 52 52 52 53 55
39 43 42 39 38 37 35 34 32 32 39 45 48 48 44 41 41 40 38 35 36 40 40 39 37 38 40 44 46 45 41 41 43 44 46 46 48 49 48 44 44 47 46 50
41 42 40 35 34 36 36 32 31 36 36 36 36 37 39 38 37 37 39 40 41 43 39 38 43 46 46 46 46 42 42 44 45 46 48 49 48 44 43 44 44 48 52 56
43 38 36 37 41 40 41 38 37 36 34 34 31 32 36 37 36 36 36 37 40 38 36 38 41 40 39 38 39 40 43 46 45 45 45 42 35 37 42 46 49 52 57 60
44 42 39 35 37 43 44 45 46 44 39 36 38 36 36 35 35 34 33 33 33 36 38 38 38 37 35 39 42 42 43 44 43 39 32 34 36 42 46 53 55 60 62 64
39 39 48 44 41 39 41 38 39 39 44 47 35 34 35 38 36 33 33 35 35 36 38 39 37 38 41 41 43 45 44 42 37 38 37 39 45 51 56 59 61 63 62 62
36 35 34 37 37 41 38 33 33 36 38 38 45 40 40 36 36 36 36 37 38 37 38 39 40 38 41 43 42 40 40 38 34 37 42 48 53 57 59 61 61 58 58 59
31 33 32 35 36 37 35 29 31 34 34 39 34 34 39 39 40 39 38 37 37 37 37 36 38 42 39 32 29 29 32 36 41 46 52 54 58 60 62 58 55 56 60 64
23 25 22 21 20 18 18 23 23 28 34 35 36 35 34 36 39 37 40 40 38 36 35 35 34 28 25 29 34 38 42 45 50 54 57 60 61 57 53 55 58 62 66 70
21 20 23 22 21 21 20 21 21 20 17 19 20 23 26 27 30 32 31 28 25 25 25 25 25 27 33 36 40 44 47 51 55 58 58 53 50 51 57 61 65 68 72 77
16 19 21 20 17 19 21 22 21 17 17 16 16 15 16 18 18 16 16 16 17 19 22 26 32 36 40 44 46 49 52 54 52 48 46 51 55 59 64 69 72 76 81 84
16 15 15 16 18 18 18 18 18 19 17 15 10 9 9 8 7 8 12 16 21 26 30 34 39 43 46 49 50 49 46 42 45 49 54 58 63 66 71 75 79 82 84 85
19 19 16 17 16 13 15 16 18 18 14 13 10 10 10 10 14 18 22 26 29 33 38 42 45 47 45 41 37 39 43 47 52 56 60 64 69 72 76 78 81 84 87 89
21 20 18 16 15 17 18 17 14 14 13 14 15 16 17 19 22 26 29 33 37 42 42 37 30 28 32 36 41 46 50 54 58 62 65 69 72 74 78 81 84 87 91 94
25 28 22 22 25 25 25 23 23 23 22 21 23 24 26 28 30 32 36 38 34 26 24 28 32 36 40 44 48 52 55 58 62 65 67 71 75 78 81 84 87 90 93 96
Wind_Direction
220 221 222 219 222 222 220 225 225 228 230 228 224 226 226 227 228 225 229 227 229 233 238 244 248 251 253 252 253 256 261 268 276 278 278 281 285 285 284 281 282 279 279 279
217 219 222 224 225 225 221 226 231 230 232 232 228 228 230 228 229 234 232 232 230 234 242 244 247 251 253 255 256 258 259 262 268 274 275 276 280 281 277 279 279 278 279 280
218 220 223 224 226 230 230 228 235 237 237 233 234 234 234 231 233 239 238 238 234 236 241 244 246 249 253 255 256 257 260 262 265 271 274 275 277 276 278 277 278 278 283 285
219 221 222 228 227 228 230 232 235 240 243 245 240 240 233 240 236 240 242 241 241 241 245 246 249 252 253 256 258 260 260 264 267 267 272 274 273 276 277 279 278 278 283 286
221 221 222 223 226 229 232 232 234 238 244 246 244 247 235 239 239 244 244 242 245 245 248 247 249 254 257 257 260 257 259 261 265 265 272 269 272 275 278 278 279 279 280 282
220 220 221 222 225 226 228 228 231 236 241 246 243 245 245 240 244 242 239 242 249 248 252 258 256 254 256 256 257 258 261 265 266 267 267 272 274 275 275 275 276 277 279 280
221 223 224 223 224 226 228 228 235 242 245 244 244 248 246 248 246 246 249 254 255 254 258 254 259 258 253 251 256 261 267 263 265 269 259 270 275 276 275 275 276 277 277 278
221 221 225 226 226 227 229 232 237 240 245 247 248 248 248 252 253 250 254 256 257 256 257 260 265 264 264 254 258 265 270 271 269 270 277 276 272 278 278 276 284 275 274 278
226 222 225 228 228 230 231 230 230 235 238 239 243 245 246 246 249 251 251 252 254 256 264 264 265 269 261 255 271 273 276 277 280 270 267 263 272 278 281 284 275 275 276 280
226 226 227 230 230 229 230 232 229 228 233 239 239 240 247 251 254 257 257 255 254 255 257 259 262 261 258 269 261 266 269 260 263 261 263 268 274 278 280 284 285 287 291 291
228 230 229 232 232 235 238 234 233 231 234 239 245 246 247 250 252 260 261 259 255 256 259 261 264 264 265 264 265 264 264 262 275 276 278 281 282 284 287 289 291 293 294 295
227 230 230 234 236 234 237 238 238 236 238 240 245 249 250 251 257 261 262 263 265 262 264 265 264 264 262 263 264 266 266 270 280 280 280 281 284 288 288 289 291 292 292 291
216 227 232 229 232 238 241 239 242 243 242 244 247 251 255 257 258 258 260 265 266 265 263 262 261 259 260 264 267 271 278 283 283 284 285 286 287 290 291 293 292 295 298 297
213 222 229 223 223 219 224 225 225 221 235 243 246 248 250 252 255 258 258 262 264 257 258 260 264 267 272 276 275 278 280 281 281 282 285 287 287 287 290 295 298 298 297 297
209 216 221 221 215 218 224 223 221 224 236 237 233 237 245 249 250 251 252 250 252 255 260 264 263 265 268 275 281 284 285 284 285 286 286 286 290 292 296 297 298 298 300 300
222 221 223 223 225 229 234 234 232 230 230 231 233 242 247 249 250 251 253 258 263 265 266 269 270 273 280 285 285 287 288 287 287 286 285 287 298 298 297 300 300 300 298 296
225 227 229 233 234 235 236 235 237 240 241 237 245 249 248 252 252 258 260 259 261 266 268 269 272 278 280 282 282 282 284 282 277 277 288 295 298 299 297 299 298 296 298 297
214 224 230 233 238 244 246 243 240 240 239 242 241 244 250 248 252 256 260 265 267 266 268 272 275 279 280 280 280 278 280 286 295 293 293 297 297 296 297 297 296 299 298 297
214 222 232 239 242 251 247 243 240 240 236 241 252 249 247 252 256 256 262 266 269 272 278 278 277 277 274 274 281 293 295 295 294 295 295 295 295 296 297 297 297 296 297 297
198 202 211 224 235 235 230 243 251 257 255 261 261 264 262 261 261 262 263 268 274 278 277 272 270 275 287 292 295 294 295 293 293 293 294 294 296 297 296 296 297 298 299 301
215 225 226 229 233 237 232 240 249 256 254 249 248 248 252 254 253 258 259 261 264 266 267 270 281 292 291 290 289 288 290 291 293 293 294 295 296 298 299 299 300 303 304 302
209 214 218 232 235 241 239 244 244 239 243 247 247 242 240 241 244 244 246 257 268 275 281 285 288 288 289 289 290 290 291 291 291 293 296 298 299 301 302 304 305 304 302 302
197 206 217 227 234 237 235 234 235 241 234 223 218 237 242 249 254 273 276 271 276 281 286 290 290 290 289 287 286 288 290 292 295 298 299 301 303 303 304 303 302 302 301 301
212 213 223 233 234 239 230 231 237 233 222 220 224 244 261 271 270 267 270 278 281 284 286 288 289 289 290 290 291 291 291 295 298 300 301 303 303 303 302 302 302 301 302 305
232 237 231 233 241 232 230 231 234 230 236 243 252 261 266 270 270 273 277 281 285 286 288 286 284 284 287 289 291 294 297 299 301 301 302 301 301 301 301 302 303 304 306 307
245 244 244 247 253 249 242 241 243 247 245 246 254 260 265 270 273 278 283 285 283 279 278 282 286 289 292 295 297 299 300 301 301 300 299 300 301 302 303 304 307 309 309 309